Miscellaneous Local Product
Issued by NWS Hastings, NE

Home | Current Version | Previous Version | Graphics & Text | Print | Product List | Glossary On
Versions: 1 2 3 4 5 6 7 8 9 10 11 12 13 14 15 16 17 18 19 20 21 22 23 24 25 26 27 28 29 30 31 32 33 34 35 36 37 38 39 40 41 42 43 44 45 46 47 48 49 50
000
AXUS43 KGID 251702
MISGRI

GID CWA HOURLY WEATHER ROUNDUP
NATIONAL WEATHER SERVICE HASTINGS NE
1200 PM CDT SAT MAR 25 2017

NOTE: "FAIR" INDICATES FEW OR NO CLOUDS BELOW 12,000 FEET WITH NO
SIGNIFICANT WEATHER AND/OR OBSTRUCTIONS TO VISIBILITY.

...SOUTH CENTRAL NEBRASKA...

CITY           SKY/WX    TMP DP  RH WIND       PRES   REMARKS
GRAND ISLAND   CLOUDY    36  36 100 N14       30.03S FOG     WCI  27
HASTINGS       CLOUDY    37  35  92 N15       30.02F WCI  28
KEARNEY        CLOUDY    37  34  87 N16       30.03S WCI  28
ORD            CLOUDY    37  35  92 NE12      30.04F FOG     WCI  29
YORK           CLOUDY    37  37 100 N20G28    30.00S FOG     WCI  27
AURORA         CLOUDY    36  36 100 N15       30.01S FOG     WCI  27
LEXINGTON      CLOUDY    42  38  86 N8        30.04S
HOLDREGE       CLOUDY    39  37  92 N15       30.02S WCI  31
HEBRON         CLOUDY    40  37  89 N17G23    30.00R WCI  31

...NEBRASKA PANHANDLE...

CITY           SKY/WX    TMP DP  RH WIND       PRES   REMARKS
CHADRON        MOSUNNY   61  32  33 SW12      29.93F
ALLIANCE       CLOUDY    58  29  33 S16       29.98F
SCOTTSBLUFF    MOSUNNY   56  34  43 S8        29.97F
SIDNEY         SUNNY     54  30  40 S12       30.02F

...WESTERN AND NORTH CENTRAL NEBRASKA...

CITY           SKY/WX    TMP DP  RH WIND       PRES   REMARKS
VALENTINE      SUNNY     47  28  47 CALM      30.03F
AINSWORTH      MOSUNNY   37  37 100 CALM      30.03F
ONEILL         FOG       35  35 100 N5        30.07S VSB 1/2 WCI  31
BROKEN BOW     CLOUDY    39  37  92 N10       30.03F WCI  32
IMPERIAL       SUNNY     51  32  48 N6        30.05F
NORTH PLATTE   SUNNY     50  35  56 W5        30.03F
MCCOOK         SUNNY     52  39  61 N10       30.03F

...EASTERN NEBRASKA...

CITY           SKY/WX    TMP DP  RH WIND       PRES   REMARKS
NORFOLK        CLOUDY    37  35  92 N14G25    30.02F WCI  28
SO SIOUX CITY  CLOUDY    39  37  92 NE13G21   30.04F WCI  31
TEKAMAH        LGT RAIN  41  37  86 N17       30.01S
COLUMBUS       CLOUDY    37  34  87 N16       30.02F WCI  28
ALBION         CLOUDY    39  36  89 N12       30.03S WCI  32
OMAHA EPPLEY   CLOUDY    43  37  79 N18       29.97F
OFFUTT AFB     CLOUDY    42  38  86 N12       29.96F
MILLARD        DRIZZLE   43  41  94 N8        29.98F
LINCOLN        CLOUDY    41  38  89 N17       30.00R
NEBRASKA CITY  DRIZZLE   41  41 100 NE15      29.94S
BEATRICE       LGT RAIN  42  42  97 NE15G24   29.95F
FALLS CITY     LGT RAIN  43  41  93 N14       29.91S

...NORTHERN KANSAS...

CITY           SKY/WX    TMP DP  RH WIND       PRES   REMARKS
GOODLAND       SUNNY     50  30  46 N10       30.04F
HILL CITY      CLOUDY    43  39  86 N12       30.04R
NORTON         CLOUDY    39  34  81 NW12      30.03S WCI  32
PHILLIPSBURG   CLOUDY    43  37  81 NW14G23   30.02F
HAYS             N/A     43  39  86 N14       30.02R
RUSSELL        CLOUDY    41  38  89 N16       29.99F
CONCORDIA      LGT RAIN  41  39  93 N14       29.97S
SALINA         CLOUDY    44  40  85 N21       29.97S
TOPEKA         CLOUDY    49  47  93 N14       29.87R



USA.gov is the U.S. government's official web portal to all federal, state and local government web resources and services.